CAPE
774 705 659 655 440 533 821 851 1018 1043 645 340 68 12 0 0 0 0 0 0 0 0
790 803 747 667 494 486 766 877 808 953 628 399 77 19 0 0 0 0 0 0 0 0
801 851 844 773 585 613 802 812 683 771 558 398 131 43 10 0 0 0 0 0 0 0
929 1024 1018 942 708 670 839 671 643 764 553 386 151 70 29 1 0 0 0 0 0 0
794 897 989 1105 999 830 800 797 620 587 448 355 188 65 67 54 2 0 0 0 0 0
944 976 887 957 1149 1080 1095 963 690 539 487 342 252 165 103 104 36 0 0 0 0 0
1064 1048 1099 1050 1007 1124 1189 1334 1114 786 676 489 384 320 245 195 158 42 17 13 0 0
1220 1162 1282 1301 1251 1150 1174 1260 1255 1173 812 686 588 569 406 327 306 173 106 59 30 1
1482 1466 1514 1633 1639 1511 1384 1339 1144 1128 1239 1109 896 680 602 590 469 335 258 221 113 98
1670 1600 1657 1909 2000 1843 1658 1529 1410 1190 1111 1069 1155 870 741 731 662 502 394 261 219 124
1904 1789 1814 1905 2015 2111 1983 1762 1631 1396 1294 1183 1212 1003 804 780 792 629 537 472 360 319
2184 2136 2148 2041 2018 2209 2282 2009 1925 1648 1438 1425 1291 975 905 947 783 750 729 585 500 494
2182 2294 2295 2219 2219 2271 2359 2320 2019 1895 1756 1690 1601 1273 1155 996 903 969 935 814 753 554
2314 2322 2281 2389 2475 2476 2455 2438 2195 2091 1988 1776 1831 1517 1128 873 1021 1271 1221 973 773 385
CIN
-209 -210 -195 -158 -182 -144 -113 -117 -114 -125 -187 -218 -282 -209 -0 -0 -0 -0 -0 -0 -0 -0
-240 -234 -235 -198 -200 -185 -157 -146 -167 -166 -189 -230 -306 -330 -20 -0 -0 -0 -0 -0 -0 -0
-269 -249 -246 -206 -217 -217 -200 -193 -220 -209 -218 -244 -306 -345 -395 -0 -0 -0 -0 -0 -0 -0
-286 -266 -245 -210 -229 -245 -219 -253 -245 -214 -233 -251 -305 -362 -380 -51 -0 -0 -0 -0 -0 -0
-337 -311 -270 -215 -242 -263 -258 -276 -288 -265 -283 -291 -335 -396 -358 -337 -331 -0 -0 -0 -0 -0
-340 -337 -320 -272 -277 -288 -270 -296 -324 -334 -312 -336 -348 -364 -373 -352 -372 -0 -57 -0 -0 -0
-368 -348 -355 -310 -323 -341 -322 -291 -315 -364 -336 -347 -341 -337 -351 -363 -368 -422 -406 -397 -0 -0
-421 -348 -349 -329 -340 -364 -383 -365 -344 -322 -365 -355 -349 -340 -365 -371 -327 -345 -360 -374 -355 -147
-450 -393 -347 -346 -335 -361 -388 -366 -425 -398 -330 -332 -362 -385 -361 -312 -311 -321 -314 -290 -328 -277
-505 -422 -377 -344 -307 -336 -381 -383 -401 -420 -418 -404 -340 -380 -364 -328 -287 -305 -313 -318 -281 -271
-502 -484 -431 -389 -350 -325 -339 -383 -373 -440 -417 -385 -357 -382 -385 -344 -283 -312 -305 -288 -268 -196
-498 -466 -432 -418 -400 -339 -265 -304 -346 -392 -383 -327 -349 -396 -375 -310 -324 -294 -256 -230 -197 -142
-520 -462 -441 -443 -416 -382 -310 -284 -283 -300 -312 -287 -280 -305 -304 -311 -295 -234 -192 -172 -144 -146
-518 -493 -472 -434 -341 -315 -283 -221 -226 -240 -232 -246 -205 -233 -307 -327 -272 -180 -118 -132 -127 -181
Wind_Speed
19 18 17 16 12 11 9 13 19 24 20 18 15 14 14 13 11 10 10 11 13 13
17 16 13 14 13 12 13 16 26 25 20 18 17 14 14 12 10 9 9 9 10 10
21 18 14 13 14 15 17 26 26 23 22 19 19 17 14 13 11 8 7 7 7 8
21 20 16 17 16 21 21 25 24 23 22 19 20 17 15 13 10 9 7 6 5 6
21 20 19 20 21 21 28 21 22 21 20 18 18 17 16 14 10 8 5 5 3 2
23 20 23 25 19 32 25 21 21 21 19 18 17 17 17 15 12 10 6 4 3 1
25 23 24 27 24 24 26 19 21 20 18 19 17 16 15 13 12 10 7 6 5 4
27 25 22 27 28 25 20 21 20 17 16 16 16 14 13 12 12 11 9 8 8 6
27 26 25 24 22 21 21 20 19 19 19 17 16 15 15 13 12 11 10 10 7 7
24 26 26 22 22 23 23 21 21 21 21 20 18 16 17 15 12 11 11 9 8 8
20 22 23 23 24 26 24 24 23 21 21 20 19 18 16 15 13 11 10 9 8 9
21 21 21 24 26 24 24 24 25 23 22 21 21 17 15 13 11 10 9 8 7 8
23 23 23 25 25 25 25 25 23 24 23 23 23 18 15 13 12 11 10 8 7 7
25 25 25 24 25 26 26 25 24 24 23 21 19 18 15 13 11 10 12 9 8 6
Wind_Direction
192 190 188 186 185 184 172 165 163 169 162 155 143 134 133 131 115 99 88 75 68 69
201 198 199 193 188 188 179 170 175 173 165 161 155 146 144 140 132 114 102 102 90 82
196 198 203 198 195 187 182 180 176 172 170 166 165 162 155 154 147 136 116 94 79 70
192 195 200 197 196 185 179 177 176 175 174 170 172 168 166 167 160 158 147 119 83 56
193 194 196 196 192 186 183 182 179 178 177 176 178 178 179 180 176 177 173 169 129 104
195 195 196 194 196 188 188 188 186 186 186 186 186 187 190 192 192 195 202 203 209 213
196 196 195 193 193 192 192 203 194 196 198 196 196 198 200 203 208 214 223 226 232 239
197 197 198 196 194 195 205 203 208 214 215 212 210 212 213 217 220 228 235 234 238 250
199 199 200 201 208 215 217 220 232 225 225 225 226 222 220 227 230 237 244 241 257 279
203 205 205 208 212 215 215 225 227 235 240 236 235 232 226 227 238 242 243 253 262 278
213 212 212 216 214 215 224 225 227 237 238 244 245 234 233 231 237 253 252 265 271 280
224 224 218 221 220 223 226 235 236 242 248 249 259 248 242 235 249 254 253 274 274 287
234 229 228 222 231 231 232 231 244 249 251 255 262 257 249 238 262 271 281 281 286 281
243 238 233 236 243 243 243 246 244 247 252 253 252 258 248 237 264 273 293 294 297 301